Location: Beacon Field Observatory
(38.7700°N, 77.0829°W)
Time: 16:27:02
(UTC-04:00)

Envisat - Visible Passes

Search period start: 22 April 2019 00:00
Search period end: 02 May 2019 00:00
Orbit: 764 x 766 km, 98.2° (Epoch: 22 April)

Date Brightness Start Highest point End Pass type
(mag) Time Alt. Az. Time Alt. Az. Time Alt. Az.
22 Apr 4.9 20:28:20 10° SSW 20:32:50 32° W 20:37:21 10° NNW visible
24 Apr 5.7 20:55:10 10° SW 20:58:33 18° W 21:01:57 10° NW visible
25 Apr 4.5 20:16:48 10° SSW 20:21:33 40° W 20:26:20 10° NNW visible
27 Apr 5.5 20:43:17 10° SW 20:47:14 23° W 20:51:12 10° NW visible
29 Apr 5.9 21:10:57 10° WSW 21:13:01 12° W 21:15:05 10° WNW visible
30 Apr 5.1 20:31:34 10° SSW 20:35:56 29° W 20:40:19 10° NW visible
